Монлюсон

Франция     46°20′25″N   2°36′40″E
В апреле 2022 года жителям России запретили посещать сайт meteo.paraplan.net по решению Генеральной прокуратуры. Аудитория сайта уменьшилась в 10 раз. Владельцы сайта не видят смысла в поддержке погодного сервера в таких условиях. Сайт будет закрыт в октябре.
темп.,
°C
ветер,
м/с
пор.,
м/с
влажн.,
%
обл.,
%
осадки,
мм/ч
давл.,
гПа
погр.,
м
30 сентября, пт
пт3023:00+9св1183100 0.1 100710
02:00+9сз1185100 0.4 100912
05:00+7с11917 0.0 100912
08:00+5з11955 0.0 101210
11:00+11ссз22779 0.0 1014562
14:00+15ссв22494 0.0 10131353
17:00+16ссз12444 0.0 10131514
20:00+9зсз11675 0.0 101510
1 октября, сб
сб123:00+8ююз3474100 0.0 101773
02:00+9юз51369100 0.0 1017442
05:00+10ююз61589100 0.6 1017543
08:00+11ююз81790100 1.4 1016658
11:00+12юз91793100 0.4 1018750
14:00+14зюз81592100 0.6 1019848
17:00+15юз71491100 0.1 1019763
20:00+15юз6139687 0.2 1021781
2 октября, вс
вс223:00+16зюз6139196 0.0 1023782
02:00+15зюз51194100 0.3 1024708
05:00+15юз3897100 0.3 1025537
08:00+14юз3796100 0.8 1025318
11:00+15юз479594 0.1 1026396
14:00+16юз488676 0.3 1026602
17:00+19зюз56591 0.1 10251293
20:00+13ююз46870 0.1 1026106
3 октября, пн
пн323:00+11ююз33915 0.0 102547
02:00+11ююз339335 0.0 102537
05:00+10ююз229357 0.0 102526
08:00+9ююз229311 0.0 102520
11:00+16юв01695 0.0 1024357
14:00+20св11555 0.0 1023913
17:00+20ссв22515 0.0 10211056
20:00+14св227715 0.0 102212
4 октября, вт
вт423:00+12вюв228799 0.0 102211
02:00+11юв1188100 0.0 102110
05:00+11ю118941 0.0 102010
08:00+10ю228816 0.0 101911
11:00+18ююз12565 0.0 1019281
14:00+23з22405 0.0 1018877
17:00+24зсз23365 0.0 10171347
20:00+16зсз11645 0.0 101911